Port Hope, MI

11:22 PM EDT on July 26, 2017 (GMT -0400)
Port Hope

Weather History for KP58 - January, 2013

Change the Weather History Date:

Monday, January 21, 2013

  Actual Average Record
Temperature  
Mean Temperature 12 °F -  
Max Temperature 15 °F 25 °F 44 °F (2017)
Min Temperature 7 °F 14 °F 1 °F (2004)
Degree Days  
Heating Degree Days 54    
Moisture  
Dew Point 1 °F    
Average Humidity 62    
Maximum Humidity 81    
Minimum Humidity 47    
Precipitation  
Precipitation 0.01 in - - ()
Sea Level Pressure  
Sea Level Pressure 30.01 in    
Wind  
Wind Speed 8 mph (WSW)    
Max Wind Speed 14 mph    
Max Gust Speed 25 mph    
Averages and records for this station are not official NWS values.
T = Trace of Precipitation, MM = Missing Value Source: NWS Daily Summary

Daily Weather History Graph

Daily Weather History Graph

Search for Another Location

Airport or City:

Trip Planner

Search our weather history database for the weather conditions in past years. The results will help you decide how hot, cold, wet, or windy it might be!

Date:

Astronomy

Jan. 21, 2013 Rise Set
Actual Time 7:58 AM EST 5:26 PM EST
Civil Twilight 7:27 AM EST 5:58 PM EST
Nautical Twilight 6:51 AM EST 6:33 PM EST
Astronomical Twilight 6:17 AM EST 7:08 PM EST
Moon 1:05 PM EST (1/21) 3:26 AM EST (1/21)
Length of Visible Light 10h 31m
Length of Day
9h 28m
Waxing Gibbous, 75% of the Moon is Illuminated
Jan 21
Waxing Gibbous
Jan 26
Full
Feb 3
Last Quarter
Feb 10
New
Feb 17
First Quarter

Hourly Weather History & Observations

Time (EST) Temp. Windchill Dew Point Humidity Pressure Visibility Wind Dir Wind Speed Gust Speed Precip Events Conditions
12:51 AM 14.0 °F 3.9 °F 1.9 °F 59% 30.11 in - Variable 6.9 mph 16.1 mph N/A   Unknown
1:51 AM 14.0 °F 2.0 °F 3.9 °F 64% 30.10 in - WSW 9.2 mph - N/A   Unknown
2:51 AM 12.9 °F 3.8 °F 3.9 °F 67% 30.09 in - SW 5.8 mph - N/A   Unknown
3:51 AM 12.9 °F 3.8 °F 3.9 °F 67% 30.06 in - SW 5.8 mph - N/A   Unknown
4:51 AM 12.9 °F 6.9 °F 5.0 °F 71% 30.04 in - Variable 3.5 mph - N/A   Unknown
5:51 AM 12.9 °F 1.6 °F 5.0 °F 71% 30.02 in - SW 8.1 mph - N/A   Unknown
6:51 AM 12.9 °F 2.6 °F 7.0 °F 77% 30.02 in - SSW 6.9 mph - N/A   Unknown
7:51 AM 14.0 °F 6.5 °F 7.0 °F 74% 30.01 in - Variable 4.6 mph - N/A   Unknown
8:51 AM 12.9 °F 2.6 °F 5.0 °F 71% 30.00 in - WSW 6.9 mph - N/A   Unknown
9:51 AM 14.0 °F 5.1 °F 5.0 °F 67% 29.98 in - Variable 5.8 mph - N/A   Unknown
10:51 AM 12.9 °F 3.8 °F 8.1 °F 81% 29.98 in - WSW 5.8 mph 16.1 mph N/A   Unknown
11:51 AM 14.0 °F 2.0 °F 1.9 °F 59% 29.96 in - West 9.2 mph - 0.01 in   Unknown
12:51 PM 15.1 °F 1.1 °F -2.0 °F 47% 29.94 in - West 12.7 mph 20.7 mph N/A   Unknown
1:51 PM 12.9 °F 0.7 °F -2.9 °F 49% 29.93 in - West 9.2 mph 19.6 mph N/A   Unknown
2:51 PM 12.9 °F -0.9 °F -2.0 °F 51% 29.94 in - West 11.5 mph 23.0 mph N/A   Unknown
3:51 PM 12.9 °F -1.6 °F -2.9 °F 49% 29.94 in - WSW 12.7 mph 25.3 mph N/A   Unknown
4:51 PM 10.9 °F -2.6 °F -0.0 °F 61% 29.96 in - West 10.4 mph 25.3 mph N/A   Unknown
5:51 PM 10.0 °F -5.9 °F -0.0 °F 64% 29.99 in - WSW 13.8 mph 25.3 mph N/A   Unknown
6:51 PM 10.0 °F -2.9 °F -2.9 °F 56% 29.99 in - WSW 9.2 mph 19.6 mph N/A   Unknown
7:51 PM 10.0 °F -1.9 °F -2.9 °F 56% 30.00 in - West 8.1 mph 17.3 mph N/A   Unknown
8:51 PM 9.0 °F -6.6 °F -6.0 °F 51% 30.01 in - West 12.7 mph 21.9 mph N/A   Unknown
9:51 PM 8.1 °F -4.3 °F -6.0 °F 53% 30.03 in - West 8.1 mph 20.7 mph N/A   Unknown
10:51 PM 8.1 °F -5.3 °F -5.1 °F 55% 30.04 in - West 9.2 mph 24.2 mph N/A   Unknown
11:51 PM 7.0 °F -7.5 °F -4.0 °F 61% 30.04 in - West 10.4 mph 23.0 mph N/A   Unknown